Time,TemperatureF,DewpointF,PressureIn,WindDirection,WindDirectionDegrees,WindSpeedMPH,WindSpeedGustMPH,Humidity,HourlyPrecipIn,Conditions,Clouds,dailyrainin,SoftwareType,DateUTC
2013-01-19 00:04:00,17.0,8.0,30.31,WNW,292,0.0,2.0,68,0.00,,,0.00,,2013-01-19 05:04:00,
2013-01-19 00:12:00,17.0,8.0,30.31,WNW,292,0.0,2.0,68,0.00,,,0.00,,2013-01-19 05:12:00,
2013-01-19 00:23:00,17.0,8.0,30.31,WNW,292,0.0,2.0,68,0.00,,,0.00,,2013-01-19 05:23:00,
2013-01-19 00:33:00,17.0,9.0,30.29,East,90,0.0,2.0,69,0.00,,,0.00,,2013-01-19 05:33:00,
2013-01-19 00:43:00,17.0,9.0,30.29,East,90,0.0,2.0,69,0.00,,,0.00,,2013-01-19 05:43:00,
2013-01-19 00:53:00,17.0,9.0,30.29,East,90,0.0,2.0,69,0.00,,,0.00,,2013-01-19 05:53:00,
2013-01-19 01:03:00,19.0,11.0,30.28,NW,315,0.0,1.0,69,0.00,,,0.00,,2013-01-19 06:03:00,
2013-01-19 01:12:00,19.0,11.0,30.28,NW,315,0.0,1.0,69,0.00,,,0.00,,2013-01-19 06:12:00,
2013-01-19 01:23:00,19.0,11.0,30.28,NW,315,0.0,1.0,69,0.00,,,0.00,,2013-01-19 06:23:00,
2013-01-19 01:33:00,21.0,12.0,30.25,SSE,158,1.0,7.0,68,0.00,,,0.00,,2013-01-19 06:33:00,
2013-01-19 01:43:00,21.0,12.0,30.25,SSE,158,1.0,7.0,68,0.00,,,0.00,,2013-01-19 06:43:00,
2013-01-19 01:53:00,21.0,12.0,30.25,SSE,158,1.0,7.0,68,0.00,,,0.00,,2013-01-19 06:53:00,
2013-01-19 02:02:00,22.0,12.0,30.25,WNW,292,2.0,6.0,65,0.00,,,0.00,,2013-01-19 07:02:00,
2013-01-19 02:12:00,22.0,12.0,30.25,WNW,292,2.0,6.0,65,0.00,,,0.00,,2013-01-19 07:12:00,
2013-01-19 02:23:00,22.0,12.0,30.25,WNW,292,2.0,6.0,65,0.00,,,0.00,,2013-01-19 07:23:00,
2013-01-19 02:33:00,23.0,13.0,30.23,South,180,2.0,7.0,65,0.00,,,0.00,,2013-01-19 07:33:00,
2013-01-19 02:43:00,23.0,13.0,30.23,South,180,2.0,7.0,65,0.00,,,0.00,,2013-01-19 07:43:00,
2013-01-19 02:53:00,23.0,13.0,30.23,South,180,2.0,7.0,65,0.00,,,0.00,,2013-01-19 07:53:00,
2013-01-19 03:02:00,23.0,13.0,30.22,North,0,2.0,7.0,64,0.00,,,0.00,,2013-01-19 08:02:00,
2013-01-19 03:12:00,23.0,13.0,30.22,North,0,2.0,7.0,64,0.00,,,0.00,,2013-01-19 08:12:00,
2013-01-19 03:22:00,23.0,13.0,30.22,North,0,2.0,7.0,64,0.00,,,0.00,,2013-01-19 08:22:00,
2013-01-19 03:33:00,24.0,14.0,30.22,NW,315,2.0,5.0,64,0.00,,,0.00,,2013-01-19 08:33:00,
2013-01-19 03:43:00,24.0,14.0,30.22,NW,315,2.0,5.0,64,0.00,,,0.00,,2013-01-19 08:43:00,
2013-01-19 03:53:00,24.0,14.0,30.22,NW,315,2.0,5.0,64,0.00,,,0.00,,2013-01-19 08:53:00,
2013-01-19 04:02:00,25.0,15.0,30.20,SSW,202,3.0,7.0,64,0.00,,,0.00,,2013-01-19 09:02:00,
2013-01-19 04:12:00,25.0,15.0,30.20,SSW,202,3.0,7.0,64,0.00,,,0.00,,2013-01-19 09:12:00,
2013-01-19 04:23:00,25.0,15.0,30.20,SSW,202,3.0,7.0,64,0.00,,,0.00,,2013-01-19 09:23:00,
2013-01-19 04:33:00,25.0,15.0,30.17,NNE,22,3.0,14.0,65,0.00,,,0.00,,2013-01-19 09:33:00,
2013-01-19 04:43:00,25.0,15.0,30.17,NNE,22,3.0,14.0,65,0.00,,,0.00,,2013-01-19 09:43:00,
2013-01-19 04:53:00,25.0,15.0,30.17,NNE,22,3.0,14.0,65,0.00,,,0.00,,2013-01-19 09:53:00,
2013-01-19 05:02:00,26.0,16.0,30.16,South,180,3.0,6.0,64,0.00,,,0.00,,2013-01-19 10:02:00,
2013-01-19 05:12:00,26.0,16.0,30.16,South,180,3.0,6.0,64,0.00,,,0.00,,2013-01-19 10:12:00,
2013-01-19 05:23:00,26.0,16.0,30.16,South,180,3.0,6.0,64,0.00,,,0.00,,2013-01-19 10:23:00,
2013-01-19 05:33:00,27.0,16.0,30.14,East,90,2.0,5.0,64,0.00,,,0.00,,2013-01-19 10:33:00,
2013-01-19 05:43:00,27.0,16.0,30.14,East,90,2.0,5.0,64,0.00,,,0.00,,2013-01-19 10:43:00,
2013-01-19 05:53:00,27.0,16.0,30.14,East,90,2.0,5.0,64,0.00,,,0.00,,2013-01-19 10:53:00,
2013-01-19 06:03:00,28.0,17.0,30.14,NE,45,3.0,8.0,63,0.00,,,0.00,,2013-01-19 11:03:00,
2013-01-19 06:12:00,28.0,17.0,30.14,NE,45,3.0,8.0,63,0.00,,,0.00,,2013-01-19 11:12:00,
2013-01-19 07:47:00,28.0,18.0,30.13,ENE,68,5.0,12.0,65,0.00,,,0.00,,2013-01-19 12:47:00,
2013-01-19 07:48:00,28.0,18.0,30.13,ENE,68,5.0,12.0,65,0.00,,,0.00,,2013-01-19 12:48:00,
2013-01-19 07:53:00,29.0,19.0,30.12,SW,225,3.0,10.0,65,0.00,,,0.00,,2013-01-19 12:53:00,
2013-01-19 08:03:00,30.0,20.0,30.11,SSW,202,5.0,15.0,66,0.00,,,0.00,,2013-01-19 13:03:00,
2013-01-19 08:13:00,30.0,20.0,30.11,SSW,202,5.0,15.0,66,0.00,,,0.00,,2013-01-19 13:13:00,
2013-01-19 08:23:00,30.0,20.0,30.11,SSW,202,5.0,15.0,66,0.00,,,0.00,,2013-01-19 13:23:00,
2013-01-19 08:34:00,31.0,21.0,30.15,North,352,5.0,8.0,66,0.00,,,0.00,,2013-01-19 13:34:00,
2013-01-19 08:43:00,31.0,21.0,30.15,North,352,5.0,8.0,66,0.00,,,0.00,,2013-01-19 13:43:00,
2013-01-19 08:54:00,31.0,21.0,30.15,North,352,5.0,8.0,66,0.00,,,0.00,,2013-01-19 13:54:00,
2013-01-19 09:03:00,33.0,23.0,30.17,WNW,294,5.0,12.0,65,0.00,,,0.00,,2013-01-19 14:03:00,
2013-01-19 09:12:00,33.0,23.0,30.17,WNW,294,5.0,12.0,65,0.00,,,0.00,,2013-01-19 14:12:00,
2013-01-19 09:23:00,33.0,23.0,30.17,WNW,294,5.0,12.0,65,0.00,,,0.00,,2013-01-19 14:23:00,
2013-01-19 09:34:00,34.0,23.0,30.19,SSW,202,5.0,10.0,64,0.00,,,0.00,,2013-01-19 14:34:00,
2013-01-19 09:43:00,34.0,23.0,30.19,SSW,202,5.0,10.0,64,0.00,,,0.00,,2013-01-19 14:43:00,
2013-01-19 09:54:00,34.0,23.0,30.19,SSW,202,5.0,10.0,64,0.00,,,0.00,,2013-01-19 14:54:00,
2013-01-19 10:03:00,36.0,24.0,30.19,WSW,246,3.0,10.0,62,0.00,,,0.00,,2013-01-19 15:03:00,
2013-01-19 10:13:00,36.0,24.0,30.19,WSW,246,3.0,10.0,62,0.00,,,0.00,,2013-01-19 15:13:00,
2013-01-19 10:23:00,36.0,24.0,30.19,WSW,246,3.0,10.0,62,0.00,,,0.00,,2013-01-19 15:23:00,
2013-01-19 10:33:00,37.0,25.0,30.19,SW,222,3.0,5.0,61,0.00,,,0.00,,2013-01-19 15:33:00,
2013-01-19 10:43:00,37.0,25.0,30.19,SW,222,3.0,5.0,61,0.00,,,0.00,,2013-01-19 15:43:00,
2013-01-19 10:53:00,37.0,25.0,30.19,SW,222,3.0,5.0,61,0.00,,,0.00,,2013-01-19 15:53:00,
2013-01-19 11:03:00,38.0,25.0,30.17,SSW,204,5.0,10.0,59,0.00,,,0.00,,2013-01-19 16:03:00,
2013-01-19 11:13:00,38.0,25.0,30.17,SSW,204,5.0,10.0,59,0.00,,,0.00,,2013-01-19 16:13:00,
2013-01-19 11:23:00,38.0,25.0,30.17,SSW,204,5.0,10.0,59,0.00,,,0.00,,2013-01-19 16:23:00,
2013-01-19 11:33:00,39.0,25.0,30.14,SW,227,5.0,18.0,58,0.00,,,0.00,,2013-01-19 16:33:00,
2013-01-19 11:43:00,39.0,25.0,30.14,SW,227,5.0,18.0,58,0.00,,,0.00,,2013-01-19 16:43:00,
2013-01-19 11:54:00,39.0,25.0,30.14,SW,227,5.0,18.0,58,0.00,,,0.00,,2013-01-19 16:54:00,
2013-01-19 12:03:00,40.0,26.0,30.12,WNW,290,3.0,12.0,57,0.00,,,0.00,,2013-01-19 17:03:00,
2013-01-19 12:21:00,40.0,26.0,30.12,WNW,290,3.0,12.0,57,0.00,,,0.00,,2013-01-19 17:21:00,
2013-01-19 12:29:00,40.0,26.0,30.12,WNW,290,3.0,12.0,57,0.00,,,0.00,,2013-01-19 17:29:00,
2013-01-19 12:37:00,40.0,26.0,30.09,SSW,202,3.0,12.0,56,0.00,,,0.00,,2013-01-19 17:37:00,
2013-01-19 12:49:00,40.0,26.0,30.09,SSW,202,3.0,12.0,56,0.00,,,0.00,,2013-01-19 17:49:00,
2013-01-19 12:55:00,40.0,26.0,30.09,SSW,202,3.0,12.0,56,0.00,,,0.00,,2013-01-19 17:55:00,
2013-01-19 13:13:00,42.0,27.0,30.07,SSW,202,5.0,8.0,54,0.01,,,0.01,,2013-01-19 18:13:00,
2013-01-19 13:29:00,42.0,27.0,30.07,SSW,202,5.0,8.0,54,0.01,,,0.01,,2013-01-19 18:29:00,
2013-01-19 13:37:00,41.0,26.0,30.06,SSE,158,3.0,6.0,55,0.01,,,0.01,,2013-01-19 18:37:00,
2013-01-19 13:45:00,41.0,26.0,30.06,SSE,158,3.0,6.0,55,0.01,,,0.01,,2013-01-19 18:45:00,
2013-01-19 14:04:00,41.0,26.0,30.06,SSE,158,3.0,6.0,55,0.01,,,0.01,,2013-01-19 19:04:00,
2013-01-19 14:10:00,44.0,28.0,30.05,South,186,3.0,7.0,52,0.00,,,0.01,,2013-01-19 19:10:00,
2013-01-19 14:21:00,44.0,28.0,30.05,South,186,3.0,7.0,52,0.00,,,0.01,,2013-01-19 19:21:00,
2013-01-19 14:31:00,44.0,28.0,30.05,South,186,3.0,7.0,52,0.00,,,0.01,,2013-01-19 19:31:00,
2013-01-19 14:40:00,43.0,27.0,30.04,SSW,209,5.0,10.0,52,0.01,,,0.03,,2013-01-19 19:40:00,
2013-01-19 14:48:00,43.0,27.0,30.04,SSW,209,5.0,10.0,52,0.01,,,0.03,,2013-01-19 19:48:00,
2013-01-19 14:59:00,43.0,27.0,30.04,SSW,209,5.0,10.0,52,0.01,,,0.03,,2013-01-19 19:59:00,
2013-01-19 15:11:00,42.0,26.0,30.03,South,187,5.0,14.0,53,0.01,,,0.03,,2013-01-19 20:11:00,
2013-01-19 15:20:00,42.0,26.0,30.03,South,187,5.0,14.0,53,0.01,,,0.03,,2013-01-19 20:20:00,
2013-01-19 15:39:00,42.0,27.0,30.03,NE,39,3.0,13.0,55,0.00,,,0.03,,2013-01-19 20:39:00,
2013-01-19 15:49:00,42.0,27.0,30.03,NE,39,3.0,13.0,55,0.00,,,0.03,,2013-01-19 20:49:00,
2013-01-19 15:59:00,42.0,27.0,30.03,NE,39,3.0,13.0,55,0.00,,,0.03,,2013-01-19 20:59:00,
2013-01-19 16:08:00,41.0,27.0,30.01,NE,43,3.0,7.0,56,0.00,,,0.03,,2013-01-19 21:08:00,
2013-01-19 16:15:00,41.0,27.0,30.01,NE,43,3.0,7.0,56,0.00,,,0.03,,2013-01-19 21:15:00,
2013-01-19 16:29:00,41.0,27.0,30.01,NE,43,3.0,7.0,56,0.00,,,0.03,,2013-01-19 21:29:00,
2013-01-19 16:46:00,40.0,26.0,29.96,SE,135,3.0,9.0,58,0.00,,,0.03,,2013-01-19 21:46:00,
2013-01-19 16:52:00,40.0,26.0,29.96,SE,135,3.0,9.0,58,0.00,,,0.03,,2013-01-19 21:52:00,
2013-01-19 17:02:00,40.0,26.0,29.96,SE,135,3.0,9.0,58,0.00,,,0.03,,2013-01-19 22:02:00,
2013-01-19 17:19:00,39.0,26.0,29.96,SSE,161,2.0,7.0,60,0.00,,,0.03,,2013-01-19 22:19:00,
2013-01-19 17:28:00,39.0,26.0,29.96,SSE,161,2.0,7.0,60,0.00,,,0.03,,2013-01-19 22:28:00,
2013-01-19 17:35:00,38.0,26.0,29.96,NW,313,2.0,7.0,62,0.00,,,0.03,,2013-01-19 22:35:00,
2013-01-19 17:48:00,38.0,26.0,29.96,NW,313,2.0,7.0,62,0.00,,,0.03,,2013-01-19 22:48:00,
2013-01-19 17:59:00,38.0,26.0,29.96,NW,313,2.0,7.0,62,0.00,,,0.03,,2013-01-19 22:59:00,
2013-01-19 18:14:00,38.0,27.0,29.97,SW,223,2.0,8.0,64,0.00,,,0.03,,2013-01-19 23:14:00,
2013-01-19 18:28:00,38.0,27.0,29.97,SW,223,2.0,8.0,64,0.00,,,0.03,,2013-01-19 23:28:00,
2013-01-19 18:35:00,38.0,27.0,29.95,South,181,2.0,7.0,64,0.00,,,0.03,,2013-01-19 23:35:00,
2013-01-19 18:52:00,38.0,27.0,29.95,South,181,2.0,7.0,64,0.00,,,0.03,,2013-01-19 23:52:00,
2013-01-19 19:08:00,38.0,27.0,29.95,South,181,2.0,7.0,64,0.00,,,0.03,,2013-01-20 00:08:00,
2013-01-19 19:16:00,38.0,27.0,29.95,WSW,247,3.0,7.0,63,0.00,,,0.03,,2013-01-20 00:16:00,
2013-01-19 19:47:00,39.0,27.0,29.96,WSW,248,2.0,5.0,61,0.00,,,0.03,,2013-01-20 00:47:00,
2013-01-19 19:58:00,39.0,27.0,29.96,WSW,248,2.0,5.0,61,0.00,,,0.03,,2013-01-20 00:58:00,
2013-01-19 20:04:00,38.0,26.0,29.95,SW,225,2.0,5.0,62,0.00,,,0.03,,2013-01-20 01:04:00,
2013-01-19 20:21:00,38.0,26.0,29.95,SW,225,2.0,5.0,62,0.00,,,0.03,,2013-01-20 01:21:00,
2013-01-19 20:28:00,38.0,26.0,29.95,SW,225,2.0,5.0,62,0.00,,,0.03,,2013-01-20 01:28:00,
2013-01-19 20:38:00,37.0,26.0,29.95,South,180,1.0,5.0,63,0.00,,,0.03,,2013-01-20 01:38:00,
2013-01-19 20:49:00,37.0,26.0,29.95,South,180,1.0,5.0,63,0.00,,,0.03,,2013-01-20 01:49:00,
2013-01-19 21:05:00,37.0,26.0,29.95,South,180,1.0,5.0,63,0.00,,,0.03,,2013-01-20 02:05:00,
2013-01-19 21:15:00,35.0,25.0,29.94,East,90,0.0,0.0,67,0.00,,,0.03,,2013-01-20 02:15:00,
2013-01-19 21:27:00,35.0,25.0,29.94,East,90,0.0,0.0,67,0.00,,,0.03,,2013-01-20 02:27:00,
2013-01-19 21:45:00,32.0,24.0,29.92,South,180,0.0,1.0,72,0.00,,,0.03,,2013-01-20 02:45:00,
2013-01-19 21:59:00,32.0,24.0,29.92,South,180,0.0,1.0,72,0.00,,,0.03,,2013-01-20 02:59:00,
2013-01-19 22:09:00,33.0,26.0,29.91,SSW,202,1.0,5.0,76,0.00,,,0.03,,2013-01-20 03:09:00,
2013-01-19 22:15:00,33.0,26.0,29.91,SSW,202,1.0,5.0,76,0.00,,,0.03,,2013-01-20 03:15:00,
2013-01-19 22:39:00,35.0,29.0,29.89,SW,222,2.0,6.0,77,0.00,,,0.03,,2013-01-20 03:39:00,
2013-01-19 22:45:00,35.0,29.0,29.89,SW,222,2.0,6.0,77,0.00,,,0.03,,2013-01-20 03:45:00,
2013-01-19 22:58:00,35.0,29.0,29.89,SW,222,2.0,6.0,77,0.00,,,0.03,,2013-01-20 03:58:00,
2013-01-19 23:05:00,36.0,29.0,29.87,ENE,65,2.0,3.0,76,0.00,,,0.03,,2013-01-20 04:05:00,
2013-01-19 23:15:00,36.0,29.0,29.87,ENE,65,2.0,3.0,76,0.00,,,0.03,,2013-01-20 04:15:00,
2013-01-19 23:28:00,36.0,29.0,29.87,ENE,65,2.0,3.0,76,0.00,,,0.03,,2013-01-20 04:28:00,
2013-01-19 23:37:00,38.0,31.0,29.85,SW,225,3.0,13.0,75,0.00,,,0.03,,2013-01-20 04:37:00,
2013-01-19 23:59:00,38.0,31.0,29.85,SW,225,3.0,13.0,75,0.00,,,0.03,,2013-01-20 04:59:00,